ROA312 SCCI-SCTE

Flight info

Callsign ROA312
Flight time 1h 44m
Altitude 34000
Route SIRUN4A SIRUN UQ802 CAUKE CAUKE5B
Aircraft A321/M-SDE3FGHIRWY/LB1

Departure

Time 2026-05-09 21:09
Airport President Carlos Ibáñez International Airport (SCCI)

Arrival

Time 2026-05-09 22:54
Airport El Tepual International Airport (SCTE)
Time Latitude Longitude Altitude Speed Heading
2026-05-09 20:55 -53.00444 -70.84364 153 ft 0 kts 179°
2026-05-09 20:58 -53.00442 -70.84364 153 ft 3 kts 179°
2026-05-09 20:59 -53.00423 -70.84365 153 ft 3 kts 179°
2026-05-09 20:59 -53.00404 -70.84360 152 ft 3 kts 210°
2026-05-09 20:59 -53.00389 -70.84339 152 ft 3 kts 241°
2026-05-09 21:00 -53.00384 -70.84281 151 ft 3 kts 279°
2026-05-09 21:00 -53.00385 -70.84271 151 ft 0 kts 279°
2026-05-09 21:02 -53.00384 -70.84289 150 ft 3 kts 279°
2026-05-09 21:02 -53.00380 -70.84334 150 ft 5 kts 278°
2026-05-09 21:02 -53.00346 -70.84370 150 ft 8 kts 349°
2026-05-09 21:02 -53.00299 -70.84374 150 ft 5 kts 359°
2026-05-09 21:03 -53.00261 -70.84370 150 ft 6 kts 20°
2026-05-09 21:03 -53.00247 -70.84306 150 ft 5 kts 89°
2026-05-09 21:03 -53.00246 -70.84251 150 ft 6 kts 89°
2026-05-09 21:03 -53.00245 -70.84147 150 ft 12 kts 88°
2026-05-09 21:04 -53.00242 -70.83980 150 ft 17 kts 89°
2026-05-09 21:04 -53.00239 -70.83755 150 ft 21 kts 89°
2026-05-09 21:04 -53.00237 -70.83607 150 ft 12 kts 89°
2026-05-09 21:04 -53.00234 -70.83460 178 ft 8 kts 84°
2026-05-09 21:05 -53.00197 -70.83422 178 ft 6 kts
2026-05-09 21:05 -53.00159 -70.83423 177 ft 4 kts 359°
2026-05-09 21:05 -53.00153 -70.83423 177 ft 0 kts 359°
2026-05-09 21:07 -53.00120 -70.83424 175 ft 9 kts 359°
2026-05-09 21:08 -53.00067 -70.83441 175 ft 5 kts 301°
2026-05-09 21:08 -53.00065 -70.83486 174 ft 0 kts 268°
2026-05-09 21:08 -53.00065 -70.83527 174 ft 19 kts 268°
2026-05-09 21:09 -53.00075 -70.84157 177 ft 86 kts 268°
2026-05-09 21:09 -53.00090 -70.85461 176 ft 138 kts 268°
2026-05-09 21:09 -53.00122 -70.87131 654 ft 143 kts 269°
2026-05-09 21:09 -52.99886 -70.88754 1206 ft 156 kts 302°
2026-05-09 21:10 -52.99090 -70.90139 1568 ft 175 kts 305°
2026-05-09 21:10 -52.98235 -70.91719 1799 ft 194 kts 303°
2026-05-09 21:10 -52.97292 -70.93515 1977 ft 219 kts 304°
2026-05-09 21:10 -52.96241 -70.95520 2433 ft 237 kts 304°
2026-05-09 21:11 -52.95139 -70.97599 3245 ft 242 kts 304°
2026-05-09 21:12 -52.90593 -71.06110 6541 ft 253 kts 304°
2026-05-09 21:12 -52.89409 -71.08286 7269 ft 257 kts 306°
2026-05-09 21:12 -52.88162 -71.10437 8022 ft 261 kts 307°
2026-05-09 21:12 -52.86878 -71.12596 8748 ft 265 kts 307°
2026-05-09 21:13 -52.85571 -71.14782 9474 ft 268 kts 307°
2026-05-09 21:13 -52.84249 -71.16995 10173 ft 272 kts 307°
2026-05-09 21:13 -52.82876 -71.19308 10412 ft 293 kts 307°
2026-05-09 21:13 -52.81400 -71.21816 10548 ft 315 kts 307°
2026-05-09 21:14 -52.79842 -71.24453 10949 ft 326 kts 307°
2026-05-09 21:14 -52.78240 -71.27137 11571 ft 331 kts 308°
2026-05-09 21:14 -52.76609 -71.29859 12223 ft 334 kts 307°
2026-05-09 21:14 -52.74974 -71.32589 12860 ft 338 kts 307°
2026-05-09 21:15 -52.73304 -71.35383 13521 ft 342 kts 307°
2026-05-09 21:15 -52.71608 -71.38166 14150 ft 346 kts 309°
2026-05-09 21:15 -52.69833 -71.40899 14748 ft 351 kts 310°
2026-05-09 21:15 -52.68009 -71.43601 15339 ft 354 kts 311°
2026-05-09 21:16 -52.66158 -71.46302 15938 ft 358 kts 311°
2026-05-09 21:16 -52.64280 -71.49035 16497 ft 361 kts 311°
2026-05-09 21:16 -52.62398 -71.51789 17058 ft 364 kts 311°
2026-05-09 21:16 -52.60504 -71.54579 17616 ft 367 kts 310°
2026-05-09 21:17 -52.58599 -71.57405 18175 ft 370 kts 310°
2026-05-09 21:17 -52.56681 -71.60258 18679 ft 373 kts 310°
2026-05-09 21:17 -52.54747 -71.63129 19170 ft 376 kts 310°
2026-05-09 21:17 -52.52798 -71.66016 19657 ft 379 kts 310°
2026-05-09 21:18 -52.50833 -71.68920 20145 ft 381 kts 309°
2026-05-09 21:18 -52.48856 -71.71842 20627 ft 383 kts 309°
2026-05-09 21:18 -52.46893 -71.74735 21105 ft 386 kts 309°
2026-05-09 21:18 -52.44865 -71.77718 21604 ft 388 kts 309°
2026-05-09 21:19 -52.38799 -71.86608 22979 ft 395 kts 308°
2026-05-09 21:19 -52.36746 -71.89616 23430 ft 397 kts 308°
2026-05-09 21:20 -52.34683 -71.92634 23817 ft 399 kts 308°
2026-05-09 21:20 -52.32607 -71.95672 24184 ft 402 kts 307°
2026-05-09 21:20 -52.30515 -71.98725 24575 ft 403 kts 307°
2026-05-09 21:20 -52.28416 -72.01782 24976 ft 405 kts 307°
2026-05-09 21:21 -52.26308 -72.04845 25342 ft 407 kts 307°
2026-05-09 21:21 -52.24190 -72.07915 25713 ft 408 kts 306°
2026-05-09 21:21 -52.22062 -72.10991 26067 ft 409 kts 306°
2026-05-09 21:21 -52.19926 -72.14074 26440 ft 411 kts 306°
2026-05-09 21:22 -52.17783 -72.17170 26786 ft 412 kts 306°
2026-05-09 21:22 -52.15634 -72.20280 27132 ft 414 kts 305°
2026-05-09 21:22 -52.13483 -72.23394 27470 ft 415 kts 305°
2026-05-09 21:22 -52.11319 -72.26520 27798 ft 416 kts 304°
2026-05-09 21:23 -52.09149 -72.29650 28172 ft 418 kts 304°
2026-05-09 21:23 -52.06970 -72.32785 28508 ft 419 kts 304°
2026-05-09 21:23 -52.04781 -72.35929 28823 ft 421 kts 304°
2026-05-09 21:23 -52.02581 -72.39079 29127 ft 422 kts 304°
2026-05-09 21:24 -52.00375 -72.42231 29439 ft 423 kts 304°
2026-05-09 21:24 -51.98161 -72.45388 29745 ft 424 kts 303°
2026-05-09 21:24 -51.95938 -72.48553 30041 ft 426 kts 303°
2026-05-09 21:24 -51.94465 -72.50653 30228 ft 426 kts 303°
2026-05-09 21:25 -51.92240 -72.53823 30544 ft 425 kts 303°
2026-05-09 21:25 -51.90017 -72.56980 30876 ft 424 kts 303°
2026-05-09 21:25 -51.87796 -72.60131 31193 ft 424 kts 303°
2026-05-09 21:25 -51.85582 -72.63269 31500 ft 423 kts 304°
2026-05-09 21:26 -51.83293 -72.66318 31803 ft 433 kts 309°
2026-05-09 21:26 -51.80706 -72.68968 32104 ft 443 kts 314°
2026-05-09 21:26 -51.78053 -72.71515 32421 ft 443 kts 314°
2026-05-09 21:26 -51.75404 -72.74050 32729 ft 443 kts 314°
2026-05-09 21:27 -51.71895 -72.77413 33164 ft 442 kts 314°
2026-05-09 21:27 -51.70143 -72.79093 33376 ft 441 kts 314°
2026-05-09 21:27 -51.67505 -72.81623 33761 ft 440 kts 314°
2026-05-09 21:27 -51.64877 -72.84142 34091 ft 440 kts 314°
2026-05-09 21:28 -51.59629 -72.89146 34185 ft 434 kts 314°
2026-05-09 21:28 -51.54439 -72.94072 34190 ft 432 kts 313°
2026-05-09 21:29 -51.49277 -72.98985 34192 ft 431 kts 313°
2026-05-09 21:29 -51.44124 -73.03885 34193 ft 431 kts 313°
2026-05-09 21:30 -51.38964 -73.08760 34196 ft 430 kts 313°
2026-05-09 21:30 -51.33809 -73.13604 34187 ft 430 kts 313°
2026-05-09 21:31 -51.28648 -73.18450 34210 ft 430 kts 313°
2026-05-09 21:31 -51.23493 -73.23270 34222 ft 429 kts 312°
2026-05-09 21:32 -51.18351 -73.28073 34235 ft 427 kts 312°
2026-05-09 21:32 -51.13229 -73.32839 34233 ft 425 kts 311°
2026-05-09 21:33 -51.08131 -73.37576 34240 ft 424 kts 311°
2026-05-09 21:33 -51.03045 -73.42292 34236 ft 422 kts 311°
2026-05-09 21:34 -50.97970 -73.46994 34262 ft 422 kts 311°
2026-05-09 21:34 -50.92897 -73.51669 34262 ft 421 kts 310°
2026-05-09 21:35 -50.87835 -73.56314 34281 ft 420 kts 310°
2026-05-09 21:35 -50.82789 -73.60943 34276 ft 418 kts 310°
2026-05-09 21:36 -50.77763 -73.65534 34285 ft 416 kts 309°
2026-05-09 21:36 -50.72749 -73.70126 34286 ft 415 kts 309°
2026-05-09 21:37 -50.67788 -73.74646 34281 ft 414 kts 309°
2026-05-09 21:37 -50.62800 -73.79174 34282 ft 413 kts 309°
2026-05-09 21:38 -50.57821 -73.83678 34284 ft 413 kts 308°
2026-05-09 21:38 -50.52850 -73.88171 34290 ft 411 kts 308°
2026-05-09 21:39 -50.47895 -73.92629 34273 ft 410 kts 308°
2026-05-09 21:39 -50.42940 -73.97086 34291 ft 411 kts 308°
2026-05-09 21:40 -50.40402 -73.99248 34288 ft 424 kts 313°
2026-05-09 21:40 -50.37558 -74.00942 34285 ft 451 kts 323°
2026-05-09 21:40 -50.34393 -74.01946 34289 ft 481 kts 334°
2026-05-09 21:40 -50.30940 -74.02079 34273 ft 511 kts 346°
2026-05-09 21:41 -50.23793 -74.01072 34278 ft 516 kts 347°
2026-05-09 21:41 -50.16627 -74.00065 34270 ft 517 kts 347°
2026-05-09 21:42 -50.09464 -73.99110 34281 ft 517 kts 347°
2026-05-09 21:42 -50.02290 -73.98186 34274 ft 516 kts 347°
2026-05-09 21:43 -49.95149 -73.97242 34277 ft 515 kts 347°
2026-05-09 21:43 -49.88009 -73.96314 34282 ft 516 kts 348°
2026-05-09 21:44 -49.80845 -73.95377 34279 ft 516 kts 348°
2026-05-09 21:44 -49.73732 -73.94422 34283 ft 516 kts 348°
2026-05-09 21:45 -49.66586 -73.93498 34288 ft 515 kts 348°
2026-05-09 21:45 -49.59428 -73.92555 34285 ft 516 kts 349°
2026-05-09 21:46 -49.52294 -73.91596 34295 ft 514 kts 348°
2026-05-09 21:46 -49.45131 -73.90722 34427 ft 519 kts 349°
2026-05-09 21:47 -49.41524 -73.90277 34682 ft 519 kts 349°
2026-05-09 21:47 -49.37920 -73.89818 34924 ft 519 kts 350°
2026-05-09 21:47 -49.34333 -73.89353 35273 ft 516 kts 350°
2026-05-09 21:47 -49.30761 -73.88883 35558 ft 514 kts 351°
2026-05-09 21:48 -49.27207 -73.88414 35905 ft 512 kts 351°
2026-05-09 21:48 -49.23666 -73.87954 36176 ft 509 kts 351°
2026-05-09 21:48 -49.20134 -73.87503 36303 ft 509 kts 351°
2026-05-09 21:48 -49.16660 -73.87059 36329 ft 507 kts 351°
2026-05-09 21:49 -49.09626 -73.86176 36335 ft 506 kts 351°
2026-05-09 21:49 -49.02613 -73.85308 36336 ft 505 kts 351°
2026-05-09 21:50 -48.95596 -73.84427 36338 ft 506 kts 351°
2026-05-09 21:51 -48.85065 -73.83078 36330 ft 506 kts 351°
2026-05-09 21:51 -48.78083 -73.82200 36330 ft 506 kts 351°
2026-05-09 21:52 -48.71019 -73.81328 36325 ft 506 kts 351°
2026-05-09 21:52 -48.64048 -73.80464 36324 ft 506 kts 351°
2026-05-09 21:53 -48.57026 -73.79585 36332 ft 506 kts 351°
2026-05-09 21:53 -48.50010 -73.78718 36316 ft 504 kts 351°
2026-05-09 21:54 -48.39497 -73.77419 36333 ft 505 kts 351°
2026-05-09 21:54 -48.32499 -73.76548 36323 ft 505 kts 352°
2026-05-09 21:55 -48.25489 -73.75688 36334 ft 505 kts 352°
2026-05-09 21:55 -48.18488 -73.74834 36352 ft 504 kts 352°
2026-05-09 21:56 -48.11495 -73.73982 36358 ft 504 kts 352°
2026-05-09 21:56 -48.04509 -73.73137 36349 ft 503 kts 352°
2026-05-09 21:57 -47.97539 -73.72291 36342 ft 502 kts 352°
2026-05-09 21:57 -47.90572 -73.71448 36344 ft 502 kts 352°
2026-05-09 21:58 -47.83601 -73.70610 36337 ft 502 kts 352°
2026-05-09 21:58 -47.76640 -73.69772 36339 ft 501 kts 352°
2026-05-09 21:59 -47.69684 -73.68942 36344 ft 502 kts 353°
2026-05-09 21:59 -47.62732 -73.68106 36330 ft 501 kts 352°
2026-05-09 22:00 -47.55787 -73.67272 36333 ft 501 kts 353°
2026-05-09 22:00 -47.48890 -73.66442 36332 ft 500 kts 353°
2026-05-09 22:01 -47.41967 -73.65624 36330 ft 498 kts 353°
2026-05-09 22:01 -47.35049 -73.64814 36331 ft 499 kts 353°
2026-05-09 22:02 -47.28133 -73.63999 36329 ft 498 kts 353°
2026-05-09 22:02 -47.21223 -73.63185 36324 ft 498 kts 353°
2026-05-09 22:03 -47.14323 -73.62380 36325 ft 497 kts 353°
2026-05-09 22:03 -47.07428 -73.61570 36321 ft 497 kts 354°
2026-05-09 22:04 -47.00585 -73.60759 36328 ft 497 kts 353°
2026-05-09 22:04 -46.93732 -73.60195 36313 ft 490 kts 351°
2026-05-09 22:05 -46.86922 -73.59985 36326 ft 489 kts 350°
2026-05-09 22:05 -46.80113 -73.59783 36323 ft 489 kts 351°
2026-05-09 22:06 -46.73300 -73.59469 36330 ft 490 kts 351°
2026-05-09 22:06 -46.66483 -73.59122 36340 ft 490 kts 351°
2026-05-09 22:07 -46.60830 -73.58840 36319 ft 488 kts 352°
2026-05-09 22:07 -46.52882 -73.58478 36321 ft 488 kts 352°
2026-05-09 22:08 -46.47259 -73.58218 36328 ft 487 kts 352°
2026-05-09 22:08 -46.40469 -73.57905 36327 ft 488 kts 352°
2026-05-09 22:09 -46.33668 -73.57580 36336 ft 489 kts 352°
2026-05-09 22:09 -46.26870 -73.57263 36336 ft 489 kts 352°
2026-05-09 22:10 -46.20066 -73.56957 36340 ft 490 kts 352°
2026-05-09 22:10 -46.13246 -73.56648 36339 ft 490 kts 353°
2026-05-09 22:11 -46.06422 -73.56335 36337 ft 491 kts 353°
2026-05-09 22:11 -45.99632 -73.56027 36343 ft 491 kts 353°
2026-05-09 22:12 -45.92792 -73.55712 36342 ft 492 kts 353°
2026-05-09 22:12 -45.85944 -73.55396 36339 ft 493 kts 353°
2026-05-09 22:13 -45.79083 -73.55079 36345 ft 493 kts 353°
2026-05-09 22:13 -45.72213 -73.54774 36345 ft 494 kts 354°
2026-05-09 22:14 -45.65337 -73.54467 36347 ft 495 kts 354°
2026-05-09 22:14 -45.58447 -73.54153 36347 ft 495 kts 354°
2026-05-09 22:15 -45.51554 -73.53842 36352 ft 496 kts 354°
2026-05-09 22:15 -45.44645 -73.53534 36358 ft 496 kts 354°
2026-05-09 22:16 -45.37729 -73.53235 36361 ft 497 kts 354°
2026-05-09 22:16 -45.30817 -73.52928 36352 ft 497 kts 354°
2026-05-09 22:17 -45.23894 -73.52606 36350 ft 497 kts 355°
2026-05-09 22:17 -45.16969 -73.52291 36345 ft 498 kts 355°
2026-05-09 22:18 -45.10017 -73.51735 36347 ft 502 kts 359°
2026-05-09 22:18 -45.03046 -73.50761 36347 ft 504 kts
2026-05-09 22:19 -44.96057 -73.49733 36354 ft 505 kts 359°
2026-05-09 22:19 -44.89090 -73.48837 36353 ft 505 kts 359°
2026-05-09 22:20 -44.82078 -73.48003 36353 ft 506 kts 359°
2026-05-09 22:20 -44.75055 -73.47156 36350 ft 507 kts 359°
2026-05-09 22:21 -44.68022 -73.46277 36350 ft 508 kts 359°
2026-05-09 22:21 -44.60982 -73.45395 36351 ft 508 kts 359°
2026-05-09 22:22 -44.53931 -73.44525 36357 ft 509 kts 359°
2026-05-09 22:22 -44.46817 -73.43656 36358 ft 510 kts 359°
2026-05-09 22:23 -44.39746 -73.42788 36356 ft 510 kts 360°
2026-05-09 22:23 -44.32712 -73.41919 36353 ft 511 kts 360°
2026-05-09 22:24 -44.25572 -73.41045 36358 ft 511 kts 360°
2026-05-09 22:24 -44.18475 -73.40180 36358 ft 512 kts
2026-05-09 22:25 -44.11417 -73.39324 36359 ft 513 kts
2026-05-09 22:25 -44.04259 -73.38461 36355 ft 513 kts
2026-05-09 22:26 -43.97183 -73.37605 36358 ft 514 kts
2026-05-09 22:26 -43.90050 -73.36745 36360 ft 515 kts
2026-05-09 22:27 -43.82907 -73.35878 36360 ft 515 kts
2026-05-09 22:27 -43.75748 -73.35018 36359 ft 516 kts
2026-05-09 22:28 -43.68587 -73.34168 36363 ft 517 kts
2026-05-09 22:28 -43.61415 -73.33315 36359 ft 518 kts
2026-05-09 22:29 -43.54231 -73.32449 36357 ft 518 kts
2026-05-09 22:29 -43.47033 -73.31578 36355 ft 519 kts
2026-05-09 22:30 -43.39832 -73.30726 36353 ft 520 kts
2026-05-09 22:30 -43.32619 -73.29885 36355 ft 520 kts
2026-05-09 22:31 -43.25398 -73.29040 36357 ft 521 kts
2026-05-09 22:31 -43.18178 -73.28186 36355 ft 521 kts
2026-05-09 22:32 -43.10940 -73.27338 36351 ft 522 kts
2026-05-09 22:32 -43.03677 -73.26573 36334 ft 524 kts
2026-05-09 22:33 -43.00026 -73.26207 35534 ft 531 kts
2026-05-09 22:33 -42.96303 -73.25833 34520 ft 541 kts
2026-05-09 22:33 -42.92536 -73.25444 33629 ft 544 kts
2026-05-09 22:33 -42.88764 -73.25044 32862 ft 542 kts
2026-05-09 22:34 -42.85017 -73.24641 31928 ft 538 kts
2026-05-09 22:34 -42.81301 -73.24241 31120 ft 533 kts
2026-05-09 22:34 -42.77624 -73.23849 30327 ft 527 kts
2026-05-09 22:34 -42.73988 -73.23464 29435 ft 521 kts
2026-05-09 22:35 -42.70399 -73.23088 28601 ft 514 kts
2026-05-09 22:35 -42.66850 -73.22721 27797 ft 508 kts
2026-05-09 22:35 -42.63356 -73.22358 27035 ft 501 kts
2026-05-09 22:35 -42.59905 -73.21998 26388 ft 492 kts
2026-05-09 22:36 -42.56533 -73.21645 25861 ft 481 kts
2026-05-09 22:36 -42.53230 -73.21299 25324 ft 471 kts
2026-05-09 22:36 -42.50039 -73.20964 24817 ft 461 kts
2026-05-09 22:36 -42.46830 -73.20633 24295 ft 452 kts
2026-05-09 22:37 -42.43717 -73.20314 23752 ft 444 kts
2026-05-09 22:37 -42.40690 -73.20267 23271 ft 439 kts 355°
2026-05-09 22:37 -42.37641 -73.20401 22813 ft 436 kts 355°
2026-05-09 22:37 -42.34610 -73.20523 22349 ft 433 kts 356°
2026-05-09 22:38 -42.31608 -73.20636 21888 ft 431 kts 356°
2026-05-09 22:38 -42.28615 -73.20747 21425 ft 429 kts 356°
2026-05-09 22:38 -42.25628 -73.20856 20956 ft 428 kts 356°
2026-05-09 22:39 -42.19693 -73.21077 20019 ft 425 kts 356°
2026-05-09 22:39 -42.16737 -73.21193 19547 ft 425 kts 356°
2026-05-09 22:39 -42.13784 -73.21312 19092 ft 424 kts 356°
2026-05-09 22:40 -42.07902 -73.21550 18119 ft 422 kts 356°
2026-05-09 22:40 -42.04980 -73.21665 17673 ft 419 kts 357°
2026-05-09 22:40 -42.02075 -73.21777 17224 ft 416 kts 357°
2026-05-09 22:40 -41.99189 -73.21890 16777 ft 413 kts 357°
2026-05-09 22:41 -41.96322 -73.22001 16338 ft 410 kts 357°
2026-05-09 22:41 -41.93475 -73.22111 15898 ft 408 kts 357°
2026-05-09 22:41 -41.90648 -73.22222 15468 ft 405 kts 357°
2026-05-09 22:41 -41.87840 -73.22333 15032 ft 403 kts 357°
2026-05-09 22:42 -41.85044 -73.22445 14598 ft 400 kts 358°
2026-05-09 22:42 -41.82271 -73.22554 14158 ft 398 kts 358°
2026-05-09 22:42 -41.79511 -73.22664 13736 ft 394 kts 358°
2026-05-09 22:42 -41.76815 -73.22771 13307 ft 390 kts 358°
2026-05-09 22:43 -41.74118 -73.22877 12827 ft 385 kts 358°
2026-05-09 22:43 -41.71447 -73.22980 12398 ft 373 kts 358°
2026-05-09 22:43 -41.68894 -73.23077 11987 ft 362 kts 358°
2026-05-09 22:43 -41.66410 -73.23169 11576 ft 351 kts 358°
2026-05-09 22:44 -41.63993 -73.23256 11173 ft 346 kts 358°
2026-05-09 22:44 -41.61558 -73.23344 10468 ft 356 kts 359°
2026-05-09 22:44 -41.59089 -73.23350 10169 ft 349 kts
2026-05-09 22:44 -41.56712 -73.23261 10029 ft 332 kts
2026-05-09 22:45 -41.54446 -73.23132 9831 ft 322 kts
2026-05-09 22:45 -41.52223 -73.22993 9530 ft 317 kts
2026-05-09 22:45 -41.50023 -73.22859 9132 ft 316 kts
2026-05-09 22:45 -41.47842 -73.22740 8830 ft 311 kts
2026-05-09 22:46 -41.45680 -73.22635 8426 ft 310 kts
2026-05-09 22:46 -41.44262 -73.22569 8240 ft 306 kts
2026-05-09 22:46 -41.42141 -73.22481 7892 ft 304 kts
2026-05-09 22:47 -41.37947 -73.22357 7206 ft 298 kts
2026-05-09 22:47 -41.35880 -73.22303 6873 ft 295 kts
2026-05-09 22:47 -41.33834 -73.22249 6538 ft 292 kts
2026-05-09 22:47 -41.31814 -73.22194 6192 ft 289 kts
2026-05-09 22:48 -41.29174 -73.22097 5642 ft 286 kts
2026-05-09 22:48 -41.27878 -73.21644 5232 ft 285 kts 30°
2026-05-09 22:48 -41.26426 -73.19993 4839 ft 269 kts 59°
2026-05-09 22:48 -41.25803 -73.17760 4481 ft 252 kts 87°
2026-05-09 22:49 -41.25805 -73.15493 4156 ft 240 kts 93°
2026-05-09 22:49 -41.25849 -73.13315 3849 ft 231 kts 93°
2026-05-09 22:49 -41.25912 -73.11238 3560 ft 219 kts 99°
2026-05-09 22:49 -41.26546 -73.09522 3264 ft 205 kts 139°
2026-05-09 22:50 -41.27809 -73.08826 3025 ft 196 kts 176°
2026-05-09 22:50 -41.29123 -73.08874 2803 ft 184 kts 181°
2026-05-09 22:50 -41.30367 -73.08922 2571 ft 174 kts 181°
2026-05-09 22:50 -41.31542 -73.08964 2368 ft 165 kts 181°
2026-05-09 22:51 -41.32656 -73.09003 2177 ft 153 kts 181°
2026-05-09 22:51 -41.33675 -73.09038 2005 ft 142 kts 180°
2026-05-09 22:51 -41.34647 -73.09071 1823 ft 138 kts 180°
2026-05-09 22:51 -41.35592 -73.09103 1660 ft 137 kts 180°
2026-05-09 22:52 -41.36542 -73.09136 1483 ft 136 kts 180°
2026-05-09 22:52 -41.37486 -73.09170 1306 ft 135 kts 180°
2026-05-09 22:52 -41.38436 -73.09203 1113 ft 138 kts 180°
2026-05-09 22:52 -41.39390 -73.09237 942 ft 136 kts 181°
2026-05-09 22:53 -41.40338 -73.09270 768 ft 137 kts 181°
2026-05-09 22:53 -41.41297 -73.09303 585 ft 138 kts 181°
2026-05-09 22:53 -41.42261 -73.09336 406 ft 139 kts 181°
2026-05-09 22:53 -41.43208 -73.09374 308 ft 128 kts 181°
2026-05-09 22:54 -41.43945 -73.09396 293 ft 80 kts 181°
2026-05-09 22:54 -41.44353 -73.09410 286 ft 41 kts 181°
2026-05-09 22:54 -41.44595 -73.09420 294 ft 32 kts 181°
2026-05-09 22:54 -41.44799 -73.09428 300 ft 26 kts 182°
2026-05-09 22:55 -41.44961 -73.09435 308 ft 21 kts 181°
2026-05-09 22:55 -41.45037 -73.09441 311 ft 7 kts 200°
2026-05-09 22:55 -41.45062 -73.09480 311 ft 5 kts 241°
2026-05-09 22:55 -41.45068 -73.09545 308 ft 11 kts 274°
2026-05-09 22:56 -41.45064 -73.09617 303 ft 7 kts 286°
2026-05-09 22:56 -41.45027 -73.09655 302 ft 7 kts 347°
2026-05-09 22:56 -41.44982 -73.09656 302 ft 6 kts
2026-05-09 22:56 -41.44947 -73.09655 303 ft 4 kts
2026-05-09 22:57 -41.44908 -73.09654 303 ft 9 kts
2026-05-09 22:57 -41.44819 -73.09650 302 ft 17 kts
2026-05-09 22:57 -41.44679 -73.09646 302 ft 21 kts
2026-05-09 22:57 -41.44540 -73.09642 301 ft 18 kts
2026-05-09 22:58 -41.44424 -73.09638 302 ft 15 kts
2026-05-09 22:58 -41.44331 -73.09634 300 ft 12 kts
2026-05-09 22:58 -41.44262 -73.09632 299 ft 8 kts
2026-05-09 22:58 -41.44194 -73.09629 301 ft 12 kts
2026-05-09 22:59 -41.44098 -73.09626 300 ft 16 kts
2026-05-09 22:59 -41.43982 -73.09622 301 ft 16 kts
2026-05-09 22:59 -41.43886 -73.09618 303 ft 12 kts
2026-05-09 22:59 -41.43816 -73.09614 304 ft 8 kts
2026-05-09 23:00 -41.43760 -73.09612 302 ft 10 kts
2026-05-09 23:00 -41.43675 -73.09609 302 ft 15 kts
2026-05-09 23:00 -41.43562 -73.09605 303 ft 14 kts
2026-05-09 23:00 -41.43479 -73.09602 303 ft 10 kts
2026-05-09 23:01 -41.43410 -73.09598 303 ft 12 kts
2026-05-09 23:01 -41.43331 -73.09596 303 ft 10 kts
2026-05-09 23:01 -41.43296 -73.09636 303 ft 6 kts 285°
2026-05-09 23:01 -41.43295 -73.09672 301 ft 3 kts 269°
2026-05-09 23:02 -41.43295 -73.09717 301 ft 8 kts 270°
2026-05-09 23:02 -41.43295 -73.09745 301 ft 0 kts 271°